"Pseudo-MPEC" for P11kQVy

Created 2021 Sep 16 11:07:19 UT using Find_Orb

Click here for an explanation of pseudo-MPECs

 
 Astrometry: 
     P11kQVy  C2021 09 10=+\dk,YTV?G9KIwE1_k0PAr8jpsS^f+!KgeqNEK^dMRiPOibhZrUF51
     P11kQVy  C2021 09 10jVF:PSx8gZ?^bddF(kxLA';)oOU3_yj_9Astrometryt88jPl1d1F51
     P11kQVy  C2021 09 10JLP4M2%%^F-S*]96B9Z',TsxD#j/hVY:,mArLG1MTdW0!pFCcZ$pF51
     P11kQVy |C2021 09 13hQnfU9vwoU7UIY'OZ84WYDX*EVG%4=Hff4AY0(f/7iBWujh.iF8h807
     P11kQVy |C2021 09 13:G71o#w*x0:p8Z%)#HBXYqIG%lGrZJ2';Cwru[p+u@x0E'3!)/Zb807
     P11kQVy |C2021 09 13]c`O1X/5DjPgALHRlbk[umredacted;e_M'e0k%9V]Hk'luI4we6807
     P11kQVy |C2021 09 15IghoAP`#clickSh?Zo*D:0]pG_;)R6RfgqhereVj_E_ZO]/-KNhu807
     P11kQVy |C2021 09 153f5w$`Dc!MolY5YQl$j7=J@=.PK3$m.7Yx4]^3!_:pQt,e%RiIi,807
     P11kQVy |C2021 09 15M/J59OIrB1/U/xmmen-%^S$I2Vl[yy/cIxRfor!tt3^)v6vD!DQZ807
     P11kQVy  C2021 09 15=ihAmexplanationR_\Q^E:awq9yk32)=bsm,N8]//MwP@Q(%g4fF51
     P11kQVy  C2021 09 15N%dE?ck,ON#7HqDvc[_rb6(h_b/sv!_`G$#l1Rt4CB_As#2teIQHF51
     P11kQVy  C2021 09 15k6d/DP0)j1.mWsyRawN!G#A4Ra])/(ss\\qgFWX.Ki[$Aw!Jx@K!F51
     P11kQVy  C2021 09 15;_-vje$c8;E/(l0_$rdm.Ci+D9)d^4Jl6F\V%HtEXVkB;InZ=#`-F51

Station data:
(807) Cerro Tololo Observatory, La Serena  (S30.169136 W70.805900)  Chile.
(F51) Pan-STARRS 1, Haleakala  (N20.707235 W156.255910)  US/Hawaii.
   Observers N. Primak, A. Schultz, S. Watters, J. Thiel, T. Goggia. Measurer
   PS1 Science Consortium. 1.8-m Ritchey-Chrétien + CCD.

Orbital elements:  P11kQVy
   Perihelion 2021 Oct 29.799185 +/- 0.687268 TT = 19:10:49 (JD 2459517.299185)
Epoch 2021 Sep 15.0 TT = JDT 2459472.5   Earth MOID: 0.5020   AutoNEOCP
M 348.66961671 +/- 0.2930433        (J2000 ecliptic)
n   0.25291494 +/- 0.00325469       Peri.  282.01557 +/- 1.0667566
a   2.47639389 +/- 0.0212406        Node    99.70858 +/- 0.4854218
e   0.4149423 +/- 0.00257914        Incl.   10.71086 +/- 0.0972042
P   3.90                   H 21.7   G  0.15   U  8.9  
q 1.44883324 +/- 0.00676471    Q 3.50395454 +/- 0.0356735
From 13 observations 2021 Sept. 10-15; mean residual 0".07
Residuals in arcseconds: 
210910 F51  .00   .16-    210913 807  .06+  .00     210915 F51  .13-  .07+    
210910 F51  .06+  .07+    210915 807  .06+  .02+    210915 F51  .04+  .14-    
210910 F51  .02-  .09+    210915 807  .03+  .04-    210915 F51  .09+  .01+    
210913 807  .17-  .04+    210915 807  .01-  .02-    
210913 807  .01+  .04-    210915 F51  .03-  .09+    

Ephemerides (geocentric):
Date (UTC) HH   RA              Dec         delta   r     elong  mag " sig PA
---- -- -- --  -------------   -----------  ------ ------ -----  --- ---- ---
2021 09 16 11  00 22 20.149   -30 02 34.45  .54330 1.5020 150.4 22.2 .396 126
2021 09 16 12  00 22 20.090   -30 02 59.55  .54324 1.5019 150.4 22.2 .411 126
2021 09 16 13  00 22 20.029   -30 03 24.60  .54317 1.5018 150.4 22.2 .426 126
2021 09 16 14  00 22 19.966   -30 03 49.59  .54311 1.5017 150.4 22.2 .441 125
2021 09 16 15  00 22 19.901   -30 04 14.53  .54304 1.5016 150.4 22.2 .457 125
2021 09 16 16  00 22 19.834   -30 04 39.41  .54298 1.5015 150.4 22.2 .472 125
2021 09 16 17  00 22 19.765   -30 05 04.24  .54292 1.5014 150.4 22.2 .488 125
2021 09 16 18  00 22 19.694   -30 05 29.01  .54285 1.5013 150.4 22.2 .505 125
2021 09 16 19  00 22 19.621   -30 05 53.73  .54279 1.5012 150.4 22.2 .521 125
2021 09 16 20  00 22 19.546   -30 06 18.38  .54272 1.5011 150.4 22.2 .538 125
2021 09 16 21  00 22 19.469   -30 06 42.99  .54266 1.5010 150.4 22.2 .555 125
2021 09 16 22  00 22 19.391   -30 07 07.53  .54260 1.5009 150.3 22.2 .572 125
2021 09 16 23  00 22 19.310   -30 07 32.03  .54254 1.5008 150.3 22.2 .589 125
2021 09 17 00  00 22 19.227   -30 07 56.46  .54247 1.5007 150.3 22.2 .606 124
2021 09 17 01  00 22 19.142   -30 08 20.84  .54241 1.5006 150.3 22.2 .624 124
2021 09 17 02  00 22 19.055   -30 08 45.16  .54235 1.5005 150.3 22.2 .642 124
2021 09 17 03  00 22 18.967   -30 09 09.43  .54229 1.5004 150.3 22.2 .660 124
2021 09 17 04  00 22 18.876   -30 09 33.64  .54223 1.5003 150.3 22.2 .679 124
2021 09 17 05  00 22 18.784   -30 09 57.79  .54216 1.5002 150.3 22.2 .697 124
2021 09 17 06  00 22 18.689   -30 10 21.89  .54210 1.5001 150.3 22.2 .716 124
2021 09 17 07  00 22 18.593   -30 10 45.93  .54204 1.5000 150.3 22.2 .735 124
2021 09 17 08  00 22 18.494   -30 11 09.91  .54198 1.4999 150.3 22.2 .754 124
2021 09 17 09  00 22 18.394   -30 11 33.84  .54192 1.4998 150.2 22.2 .773 124
2021 09 17 10  00 22 18.292   -30 11 57.70  .54186 1.4997 150.2 22.2 .793 124
2021 09 17 11  00 22 18.188   -30 12 21.52  .54180 1.4996 150.2 22.2 .813 124
2021 09 17 12  00 22 18.082   -30 12 45.27  .54174 1.4995 150.2 22.2 .833 124
2021 09 17 13  00 22 17.974   -30 13 08.97  .54168 1.4994 150.2 22.2 .853 124
2021 09 17 14  00 22 17.864   -30 13 32.61  .54162 1.4993 150.2 22.2 .874 124
2021 09 17 15  00 22 17.752   -30 13 56.19  .54156 1.4993 150.2 22.2 .894 124
2021 09 17 16  00 22 17.639   -30 14 19.71  .54150 1.4992 150.2 22.2 .915 124
2021 09 17 17  00 22 17.523   -30 14 43.18  .54145 1.4991 150.2 22.2 .936 124
2021 09 17 18  00 22 17.406   -30 15 06.59  .54139 1.4990 150.2 22.2 .958 124
2021 09 17 19  00 22 17.287   -30 15 29.94  .54133 1.4989 150.1 22.2 .979 124
2021 09 17 20  00 22 17.166   -30 15 53.24  .54127 1.4988 150.1 22.2 1.00 124
2021 09 17 21  00 22 17.043   -30 16 16.47  .54121 1.4987 150.1 22.2 1.02 124
2021 09 17 22  00 22 16.919   -30 16 39.65  .54116 1.4986 150.1 22.2 1.05 124
2021 09 17 23  00 22 16.792   -30 17 02.77  .54110 1.4985 150.1 22.2 1.07 124
2021 09 18 00  00 22 16.664   -30 17 25.83  .54104 1.4984 150.1 22.2 1.09 125
2021 09 18 01  00 22 16.533   -30 17 48.84  .54098 1.4983 150.1 22.2 1.11 125
2021 09 18 02  00 22 16.401   -30 18 11.78  .54093 1.4982 150.1 22.2 1.14 125
2021 09 18 03  00 22 16.268   -30 18 34.67  .54087 1.4981 150.1 22.2 1.16 125
2021 09 18 04  00 22 16.132   -30 18 57.50  .54082 1.4980 150.1 22.2 1.18 125
2021 09 18 05  00 22 15.994   -30 19 20.27  .54076 1.4979 150.1 22.2 1.21 125
2021 09 18 06  00 22 15.855   -30 19 42.98  .54070 1.4978 150.0 22.2 1.23 125
2021 09 18 07  00 22 15.714   -30 20 05.63  .54065 1.4977 150.0 22.2 1.26 125
2021 09 18 08  00 22 15.571   -30 20 28.22  .54059 1.4976 150.0 22.2 1.28 125
2021 09 18 09  00 22 15.427   -30 20 50.76  .54054 1.4975 150.0 22.2 1.30 125
2021 09 18 10  00 22 15.280   -30 21 13.23  .54048 1.4974 150.0 22.2 1.33 125